TimeMST,TemperatureF,Dew PointF,Humidity,Sea Level PressureIn,VisibilityMPH,Wind Direction,Wind SpeedMPH,Gust SpeedMPH,PrecipitationIn,Events,Conditions,WindDirDegrees,DateUTC
12:53 AM,39.9,27.0,60,30.31,10.0,Calm,Calm,-,0.00,Rain,Light Rain,0,2013-01-25 07:53:00
1:09 AM,39.2,28.4,65,30.31,10.0,Calm,Calm,-,0.00,,Overcast,0,2013-01-25 08:09:00
1:53 AM,39.0,30.0,70,30.30,10.0,Calm,Calm,-,0.00,,Overcast,0,2013-01-25 08:53:00
2:53 AM,39.9,30.0,68,30.30,7.0,Calm,Calm,-,N/A,,Overcast,0,2013-01-25 09:53:00
3:53 AM,39.9,30.0,68,30.30,10.0,Calm,Calm,-,N/A,,Overcast,0,2013-01-25 10:53:00
4:53 AM,39.0,30.0,70,30.30,10.0,Calm,Calm,-,N/A,,Overcast,0,2013-01-25 11:53:00
5:53 AM,39.0,28.9,67,30.29,10.0,Calm,Calm,-,N/A,,Overcast,0,2013-01-25 12:53:00
6:53 AM,37.9,28.9,70,30.31,10.0,South,4.6,-,N/A,,Overcast,170,2013-01-25 13:53:00
7:53 AM,39.0,30.0,70,30.31,10.0,Calm,Calm,-,N/A,,Overcast,0,2013-01-25 14:53:00
8:53 AM,41.0,30.9,67,30.30,10.0,Calm,Calm,-,N/A,,Overcast,0,2013-01-25 15:53:00
9:53 AM,39.9,30.9,70,30.32,10.0,NNW,3.5,-,N/A,,Overcast,340,2013-01-25 16:53:00
10:53 AM,41.0,30.9,67,30.33,10.0,Variable,3.5,-,N/A,,Overcast,0,2013-01-25 17:53:00
11:53 AM,43.0,30.9,62,30.30,10.0,NNW,4.6,-,N/A,,Overcast,340,2013-01-25 18:53:00
12:53 PM,45.0,30.0,56,30.25,10.0,Calm,Calm,-,N/A,,Overcast,0,2013-01-25 19:53:00
1:53 PM,45.0,30.9,58,30.23,10.0,NNW,4.6,-,N/A,,Overcast,330,2013-01-25 20:53:00
2:53 PM,46.9,30.9,54,30.19,10.0,NNE,5.8,-,N/A,,Overcast,30,2013-01-25 21:53:00
3:53 PM,48.0,32.0,54,30.18,10.0,Calm,Calm,-,N/A,,Clear,0,2013-01-25 22:53:00
4:53 PM,46.0,32.0,58,30.19,10.0,Calm,Calm,-,N/A,,Mostly Cloudy,0,2013-01-25 23:53:00
5:53 PM,45.0,32.0,60,30.19,10.0,Calm,Calm,-,N/A,,Overcast,0,2013-01-26 00:53:00
6:53 PM,45.0,32.0,60,30.18,10.0,Calm,Calm,-,N/A,,Overcast,0,2013-01-26 01:53:00
7:53 PM,45.0,33.1,63,30.18,10.0,Calm,Calm,-,N/A,,Mostly Cloudy,0,2013-01-26 02:53:00
8:53 PM,45.0,33.1,63,30.17,10.0,Calm,Calm,-,N/A,,Overcast,0,2013-01-26 03:53:00
9:53 PM,44.1,33.1,65,30.17,10.0,Calm,Calm,-,N/A,,Overcast,0,2013-01-26 04:53:00
10:53 PM,45.0,33.1,63,30.15,10.0,Calm,Calm,-,N/A,,Overcast,0,2013-01-26 05:53:00
11:53 PM,45.0,33.1,63,30.14,9.0,Calm,Calm,-,N/A,,Overcast,0,2013-01-26 06:53:00